• In Hungary
  • List of Countries
  • For 7 days
  • Water Temperature
  • Satellite Maps
  • Weather Map
  • News
  • Weather Widgets
  • user-avatar
    Login

    Hourly Weather Karcze

    Today, 21 October, Sunday

    Time Temperature Precipitation Wind Pressure Humidity
    00:00 +7°C° 0.1 mm 3 mps 747 mmHg 82%
    01:00 +7°C° 0.1 mm 3 mps 747 mmHg 85%
    02:00 +5°C° 0.1 mm 3 mps 747 mmHg 88%
    03:00 +5°C° 0.1 mm 3 mps 746 mmHg 91%
    04:00 +4°C° 0.1 mm 3 mps 746 mmHg 95%
    05:00 +4°C° 0 mm 3 mps 747 mmHg 95%
    06:00 +5°C° 0 mm 2 mps 747 mmHg 95%
    07:00 +5°C° 0 mm 2 mps 747 mmHg 95%
    08:00 +7°C° 0 mm 2 mps 747 mmHg 87%
    09:00 +8°C° 0 mm 2 mps 748 mmHg 79%
    10:00 +10°C° 0 mm 2 mps 748 mmHg 71%
    11:00 +10°C° 0 mm 2 mps 748 mmHg 66%
    12:00 +12°C° 0 mm 2 mps 748 mmHg 61%
    13:00 +13°C° 0 mm 2 mps 748 mmHg 56%
    14:00 +13°C° 0 mm 2 mps 748 mmHg 58%
    15:00 +12°C° 0 mm 2 mps 748 mmHg 59%
    16:00 +12°C° 0 mm 1 mps 748 mmHg 60%
    17:00 +11°C° 0 mm 1 mps 748 mmHg 64%
    18:00 +10°C° 0 mm 1 mps 748 mmHg 67%
    19:00 +9°C° 0 mm 1 mps 748 mmHg 71%
    20:00 +9°C° 0 mm 1 mps 748 mmHg 72%
    21:00 +8°C° 0 mm 1 mps 748 mmHg 74%
    22:00 +8°C° 0 mm 1 mps 748 mmHg 76%
    23:00 +8°C° 0 mm 1 mps 748 mmHg 77%

    Tomorrow, 22 October, Monday

    Time Temperature Precipitation Wind Pressure Humidity
    00:00 +7°C° 0 mm 1 mps 748 mmHg 79%
    01:00 +7°C° 0 mm 1 mps 748 mmHg 80%
    02:00 +7°C° 0 mm 1 mps 747 mmHg 82%
    03:00 +6°C° 0 mm 1 mps 747 mmHg 83%
    04:00 +6°C° 0 mm 1 mps 747 mmHg 85%
    05:00 +6°C° 0 mm 1 mps 747 mmHg 85%
    06:00 +6°C° 0 mm 1 mps 747 mmHg 85%
    07:00 +5°C° 0 mm 0 mps 747 mmHg 86%
    08:00 +8°C° 0 mm 1 mps 747 mmHg 78%
    09:00 +9°C° 0 mm 1 mps 747 mmHg 70%
    10:00 +11°C° 0 mm 1 mps 747 mmHg 63%
    11:00 +12°C° 0 mm 1 mps 747 mmHg 59%
    12:00 +13°C° 0 mm 2 mps 746 mmHg 55%
    13:00 +14°C° 0 mm 2 mps 746 mmHg 51%
    14:00 +13°C° 0 mm 2 mps 745 mmHg 53%
    15:00 +13°C° 0 mm 2 mps 745 mmHg 56%
    16:00 +12°C° 0 mm 2 mps 745 mmHg 58%
    17:00 +12°C° 0 mm 2 mps 745 mmHg 62%
    18:00 +10°C° 0 mm 2 mps 745 mmHg 67%
    19:00 +9°C° 0 mm 3 mps 745 mmHg 71%
    20:00 +9°C° 0.4 mm 3 mps 745 mmHg 75%
    21:00 +8°C° 0.4 mm 4 mps 746 mmHg 79%
    22:00 +8°C° 0.4 mm 4 mps 746 mmHg 83%
    23:00 +7°C° 0.1 mm 4 mps 746 mmHg 83%

    Day after tomorrow, 23 October, Tuesday

    Time Temperature Precipitation Wind Pressure Humidity
    00:00 +6°C° 0.1 mm 4 mps 746 mmHg 83%
    01:00 +6°C° 0.1 mm 4 mps 746 mmHg 83%
    02:00 +5°C° 0 mm 4 mps 746 mmHg 86%
    03:00 +4°C° 0 mm 4 mps 746 mmHg 88%
    04:00 +4°C° 0 mm 3 mps 746 mmHg 91%
    05:00 +3°C° 0 mm 3 mps 745 mmHg 91%
    06:00 +3°C° 0 mm 4 mps 745 mmHg 92%
    07:00 +3°C° 0 mm 4 mps 745 mmHg 92%
    08:00 +4°C° 0 mm 4 mps 745 mmHg 84%
    09:00 +5°C° 0 mm 5 mps 744 mmHg 76%
    10:00 +5°C° 0 mm 6 mps 744 mmHg 68%
    11:00 +7°C° 0.1 mm 6 mps 743 mmHg 65%
    12:00 +6°C° 0.1 mm 7 mps 742 mmHg 63%
    13:00 +6°C° 0.1 mm 7 mps 740 mmHg 61%
    14:00 +6°C° 0.3 mm 8 mps 739 mmHg 64%
    15:00 +6°C° 0.3 mm 8 mps 738 mmHg 66%
    16:00 +6°C° 0.3 mm 8 mps 737 mmHg 69%
    17:00 +6°C° 1.4 mm 9 mps 736 mmHg 73%
    18:00 +6°C° 1.4 mm 9 mps 735 mmHg 76%
    19:00 +5°C° 1.4 mm 10 mps 734 mmHg 80%
    20:00 +6°C° 0.8 mm 10 mps 733 mmHg 80%
    21:00 +7°C° 0.8 mm 11 mps 732 mmHg 80%
    22:00 +8°C° 0.8 mm 11 mps 731 mmHg 80%
    23:00 +8°C° 1.1 mm 11 mps 730 mmHg 79%

    24 October, Wednesday

    Time Temperature Precipitation Wind Pressure Humidity
    00:00 +8°C° 1.1 mm 11 mps 730 mmHg 77%
    01:00 +8°C° 1.1 mm 11 mps 729 mmHg 76%
    02:00 +7°C° 0.1 mm 11 mps 729 mmHg 74%
    03:00 +6°C° 0.1 mm 11 mps 729 mmHg 72%
    04:00 +6°C° 0.1 mm 10 mps 729 mmHg 70%
    05:00 +5°C° 0.2 mm 10 mps 730 mmHg 70%
    06:00 +3°C° 0.2 mm 10 mps 731 mmHg 70%
    07:00 +3°C° 0.2 mm 9 mps 732 mmHg 69%
    08:00 +3°C° 0.3 mm 10 mps 732 mmHg 64%
    09:00 +3°C° 0.3 mm 10 mps 733 mmHg 58%
    10:00 +5°C° 0.3 mm 10 mps 733 mmHg 52%
    11:00 +5°C° 0.1 mm 10 mps 733 mmHg 50%
    12:00 +5°C° 0.1 mm 10 mps 734 mmHg 48%
    13:00 +5°C° 0.1 mm 10 mps 734 mmHg 46%
    14:00 +5°C° 0.1 mm 9 mps 734 mmHg 47%
    15:00 +5°C° 0.1 mm 8 mps 734 mmHg 48%
    16:00 +5°C° 0.1 mm 7 mps 735 mmHg 49%
    17:00 +4°C° 0 mm 7 mps 735 mmHg 51%
    18:00 +3°C° 0 mm 7 mps 736 mmHg 53%
    19:00 +3°C° 0 mm 6 mps 736 mmHg 55%
    20:00 +3°C° 0 mm 6 mps 737 mmHg 57%
    21:00 +2°C° 0 mm 6 mps 737 mmHg 59%
    22:00 +2°C° 0 mm 6 mps 737 mmHg 61%
    23:00 +2°C° 0 mm 6 mps 738 mmHg 64%

    25 October, Thursday

    Time Temperature Precipitation Wind Pressure Humidity
    00:00 +2°C° 0 mm 6 mps 738 mmHg 66%
    01:00 +1°C° 0 mm 6 mps 738 mmHg 69%
    02:00 +1°C° 0 mm 6 mps 738 mmHg 70%
    03:00 +1°C° 0 mm 6 mps 739 mmHg 72%
    04:00 +1°C° 0 mm 6 mps 739 mmHg 73%
    05:00 +1°C° 0 mm 5 mps 739 mmHg 75%
    06:00 +1°C° 0 mm 5 mps 739 mmHg 76%
    07:00 +1°C° 0 mm 5 mps 738 mmHg 78%
    08:00 +2°C° 0.2 mm 5 mps 738 mmHg 80%
    09:00 +2°C° 0.2 mm 5 mps 738 mmHg 82%
    10:00 +3°C° 0.2 mm 5 mps 737 mmHg 85%
    11:00 +4°C° 0.4 mm 6 mps 737 mmHg 86%
    12:00 +5°C° 0.4 mm 6 mps 736 mmHg 87%
    13:00 +6°C° 0.4 mm 7 mps 735 mmHg 88%
    14:00 +6°C° 0.1 mm 7 mps 735 mmHg 87%
    15:00 +8°C° 0.1 mm 7 mps 734 mmHg 85%
    16:00 +9°C° 0.1 mm 7 mps 734 mmHg 83%
    17:00 +9°C° 0.2 mm 7 mps 734 mmHg 83%
    18:00 +9°C° 0.2 mm 7 mps 734 mmHg 83%
    19:00 +9°C° 0.2 mm 7 mps 734 mmHg 83%
    20:00 +9°C° 0.1 mm 7 mps 734 mmHg 83%
    21:00 +8°C° 0.1 mm 7 mps 734 mmHg 82%
    22:00 +7°C° 0.1 mm 8 mps 734 mmHg 81%
    23:00 +7°C° 0.1 mm 8 mps 734 mmHg 82%

    26 October, Friday

    Time Temperature Precipitation Wind Pressure Humidity
    00:00 +7°C° 0.1 mm 8 mps 734 mmHg 83%
    01:00 +7°C° 0.1 mm 8 mps 734 mmHg 84%
    02:00 +6°C° 0.2 mm 7 mps 734 mmHg 84%
    03:00 +6°C° 0.2 mm 7 mps 734 mmHg 85%
    04:00 +6°C° 0.2 mm 7 mps 735 mmHg 86%
    05:00 +6°C° 0.2 mm 7 mps 735 mmHg 86%
    06:00 +7°C° 0.2 mm 6 mps 735 mmHg 86%
    07:00 +7°C° 0.2 mm 6 mps 735 mmHg 87%
    08:00 +7°C° 0.1 mm 6 mps 735 mmHg 85%
    09:00 +8°C° 0.1 mm 6 mps 735 mmHg 82%
    10:00 +8°C° 0.1 mm 6 mps 735 mmHg 80%
    11:00 +9°C° 0 mm 5 mps 734 mmHg 76%
    12:00 +10°C° 0 mm 5 mps 734 mmHg 73%
    13:00 +10°C° 0 mm 5 mps 734 mmHg 69%
    14:00 +11°C° 0 mm 4 mps 733 mmHg 69%
    15:00 +11°C° 0 mm 3 mps 733 mmHg 70%
    16:00 +10°C° 0 mm 3 mps 733 mmHg 71%
    17:00 +10°C° 0 mm 3 mps 733 mmHg 72%
    18:00 +10°C° 0 mm 3 mps 732 mmHg 73%
    19:00 +9°C° 0 mm 3 mps 732 mmHg 74%
    20:00 +9°C° 0 mm 3 mps 732 mmHg 77%
    21:00 +9°C° 0 mm 3 mps 732 mmHg 79%
    22:00 +8°C° 0 mm 3 mps 731 mmHg 82%
    23:00 +8°C° 0.1 mm 3 mps 731 mmHg 84%
    Show more